Погода Фролово

Погода Фролово : погода сейчас, прогноз погоды и архив. Всё, что Вы хотите узнать о погоде Фролово!

Поиск расширенной информации на нашем сайте:

Другие новости

Новости СМИ2

Главная страница сайта

Новости сайта

02.10.2013

Напоминаем, что на нашем новом сайте вы можете получить высокодетализированные прогнозы погоды по пунктам России, СНГ и мира (включающие важные для авиации метеовеличины, такие как направление и скорость ветра, видимость, явления погоды, количество и форма облачности, нижняя и верхняя граница облачности), а также ознакомиться с разнообразными материалами по авиационной метеорологии и подборкой полезных ссылок на эту тему.

Сайт Метеоцентр.Азия посвящён разработке технологий оптимизации авиаметеорологического обслуживания, включая проектирование и перспективное создание нескольких автоматизированных авиаметеорологических систем:
- система выпуска высокодетальных прогностических карт явлений погоды для нижнего воздушного пространства по России и ближнему зарубежью;
- система верификации прогнозов TAF (выпускаемых синоптиками официальных АМСГ РФ и ближнего зарубежья) и AUTOTAF (выпускаемых сайтом Метеоцентр.Азия) - выявление ошибок, онлайн-сопоставление с фактической погодой METAR, автоматическое внесение коррективов в прогнозы при резком отклонении фактической погоды от прогноза, подсчёт оправдываемости прогнозов по элементам и в целом;
- система обработки, анализа и отображения авиаметеорологической информации для применения провайдерами метеорологической информации.


Погода Фролово - сегодня

Время (UTC), дата Ветер
(°,м/с) 
Видим.   Явления Облачность Т
(°С)
Тd
(°С)
f(%) Тe
(°С)
Pmin
(гПа)
dP
(гПа)
Po
(мм)
O2
(г/м3)
Тmin Tmax R s Состояние
почвы
06 17.02.17 270 (З) 10 км    8/0 средняя 
[Ac cast]
-13.1 -14.9 86 -13  1030.7  1.2  761  323           
09 17.02.17 230 (ЮЗ) 10 км    ясно 
-6.4 -11.4 68 -8  1029.6  -0.7  761  315           
12 17.02.17 230 (ЮЗ) 10 км    ясно 
-6 -11.7 64 -9  1028.3  -1.3  760  314           
15 17.02.17 180 (Ю) 20000 м    4/0 верхняя 
[Cs]
-10 -13.4 76 -10  1027.7  -0.8  759  319    -6       
18 17.02.17 160 (Ю) 20000 м    ясно 
-12.3 -14.4 84 -12  1027  -0.8  758  321           
21 17.02.17 190 (Ю) 20000 м    10/0 верхняя 
[Cs]
-9.4 -12.5 78 -12  1025.2  -1.6  757  317           
00 18.02.17 200 (Ю) 20000 м    6/0 средняя 
[Ac cast]
-7.9 -10.7 80 -11  1023.1  -2  756  315           
03 18.02.17 210 (ЮЗ) 20000 м    10/0 средняя 
[Ac As]
-7.1 -9.8 81 -11  1021.2  -1.8  754  313  -12.5      31  неравномерный
сухой снег
100% 
06 18.02.17 230 (ЮЗ) 10 км    10/0 средняя 
[Ac As]
-5.2 -8.1 80 -8  1020.4  -0.7  754  310           
09 18.02.17 230 (ЮЗ) 10 км    10/0 средняя 
[Ac As]
-3.2 -6.2 80 -7  1019.6  -0.7  753  308           
12 18.02.17 250 (З) 5{10}  10 км    10/0 средняя 
[Ac As]
-0.7 -3.7 80 -4  1018.7  -0.7  753  304           
15 18.02.17 240 (ЮЗ) 20000 м    10/0 средняя 
[Ac As]
-0.4 -2.8 84 -3  1019  0.3  753  304    -0.2       
18 18.02.17 250 (З) 5{10}  20000 м    10/0 средняя 
[Ac As]
+0.5 -2 83 -2  1019.2  0.2  753  303           
21 18.02.17 250 (З) 20000 м    10/0 средняя 
[Ac As]
+0.8 -1.6 84 -2  1019.1  753  303           
00 19.02.17 260 (З) 20000 м    10/0 средняя 
[Ac As]
+0.7 -1.2 87 -2  1019.4  0.3  753  303           
03 19.02.17 250 (З) 5{11}  20000 м    10/0 средняя 
[Ac As]
+0.7 -1 88 -2  1020.1  0.6  754  303  -0.4      31  неравномерный
сухой снег
100% 
06 19.02.17 250 (З) 10 км    9/9 600 м 
[Sc]
+0.6 -1.5 86 -2  1021.6  1.5  755  304           
09 19.02.17 250 (З) 10 км    10/0 средняя 
[Ac As]
+1.8 -1.1 81 1022.7  1.2  756  303           
12 19.02.17 240 (ЮЗ) 10 км    10/0 средняя 
[Ac As]
+1.8 -0.6 84 1023.1  1.2  756  303           
15 19.02.17 240 (ЮЗ) 20000 м    9/9 600 м 
[Sc]
+1.4 -0.7 86 1023.5  0.3  756  303    +2.3       
18 19.02.17 230 (ЮЗ) 20000 м    9/9 600 м 
[Sc]
+1.1 -0.1 92 1023.3  -0.2  756  303           
21 19.02.17 250 (З) 20000 м    9/9 600 м 
[Sc]
+1.3 -1 85 -1  1022.8  -0.5  756  303           
00 20.02.17 250 (З) 20000 м    9/9 600 м 
[Sc]
+1.1 +0.2 94 1022  -0.5  755  303           
03 20.02.17 240 (ЮЗ) 20000 м    9/9 600 м 
[Sc]
+1.1 -0 92 -1  1021.6  -0.3  755  303  +1      25  неравномерный
мокрый или
старый снег
100% 
06 20.02.17 240 (ЮЗ) 10 км    9/9 600 м 
[Sc]
+1.2 -0.4 89 -2  1021.1  -0.5  755  303  +0.8         
Время (UTC), дата Ветер
(°,м/с) 
Видим.   Явления Облачность Т
(°С)
Тd
(°С)
f(%) Тe
(°С)
Pmin
(гПа)
dP
(гПа)
Po
(мм)
O2
(г/м3)
Тmin Tmax R s Состояние
почвы

Для получения пояснительной информации подведите курсор к названию столбца.

ПОГОДА Фролово - архив

Всё, что Вы хотите узнать о погоде Фролово - удобно и подробно!

Выберите нужную дату (начиная с 1 января 2015* года) и нажмите кнопку "Найти".
Будут отображены архивные сводки погоды по пункту Фролово, начиная с указанной даты.


Отображать данные в формате CSV (для использования в таблицах Excel)


Внимание! Наш архив погоды предназначен исключительно для личного некоммерческого использования в познавательных целях. Если Вам необходимы официальные справки о состоянии погоды (для производственных, юридических, коммерческих и т.п. целей), обращайтесь в органы Росгидромета.

*Примечание: данная дата относится к архиву по метеостанциям СССР (Россия, СНГ, Балтия).
Архив по метеостанциям Зарубежной Европы и Азии (кроме Китая) хранится 10 дней, по другим регионам земного шара (Китай, Африка, Америка, Австралия, Океания) - 1 день.

Фролово - район местоположения метеостанции


Название, широта, долгота, высота метеостанции:
Фролово 49.8°ш. 43.7°д. 119 м над ур. моря [Российская Федерация]

Дополнительная информация

В oтличие oт бoльшинства пoгoдных сайтoв мы публикуем пoдрoбную метеoинфoрмацию в детальнoм прoфессиoнальнoм фoрмате.

Характеристики температуры и влажнoсти вoздуха измеряются на высoте 2 м в тени вдали oт зданий и деревьев.
Скoрoсть ветра измеряется на высoте 10 м (на урoвне рoста челoвека скoрoсть ветра ниже в 1.5-2 раза). Если метеoстанция нахoдится в гoрoде или в лесу, тo скoрoсть ветра занижена на 2-4 м/с пo сравнению с oткрытым местoм. Скoрoсть ветра над акватoриями крупных рек и oзёр, а также на вершинах хoлмoв на 2-5 м/с выше, чем в oбычных услoвиях.
Атмoсфернoе давление в разных тoчках местнoсти мoжет значительнo oтличаться oт давления на метеoстанции, в зависимoсти oт услoвий рельефа (при пoдъёме на 10 м давление пoнижается примернo на 1 мм рт.ст.).